Tracking 28790 objects as of 19-Apr-2024
HD Live streaming from Space Station
objects crossing your sky now

COSMOS 1275 DEB

Track COSMOS 1275 DEB now!
10-day predictions


NORAD ID: 42179
Int'l Code: 1981-053ST
Perigee: 921.6 km
Apogee: 1,063.4 km
Inclination: 83.1 °
Period: 104.8 minutes
Semi major axis: 7363 km
RCS: Unknown
Launch date: June 4, 1981
Source: Commonwealth of Independent States (former USSR) (CIS)
Launch site: PLESETSK MISSILE AND SPACE COMPLEX (PKMTR)

Note: This is SATELLITE DEBRIS
Your satellite tracking list
Your tracking list is empty




NASA's NSSDC Master Catalog

Two Line Element Set (TLE):
1 42179U 81053ST  24106.07184401  .00001386  00000-0  14143-2 0  9991
2 42179  83.1300 234.9020 0096282 358.6405   1.4474 13.73973966945224
Source of the keplerian elements: AFSPC